Latest Weather Observations for Moranbah Airport

IDQ60801

Issued at 6:32 pm EST Sunday 24 July 2016 (issued every 30 minutes, with the page automatically refreshed every 10 minutes)

About weather observations | Map of weather stations | Latest weather observations for QLD | Other Formats
Station Details ID: 034035 Name: MORANBAH AIRPORT Lat: -22.06 Lon: 148.08 Height: 232.2 m
Data from the previous 72 hours. | See also: Recent months at Moranbah Airport
Date/Time
EST
Temp
°C
App
Temp
°C
Dew
Point
°C
Rel
Hum
%
Delta-T
°C
Wind Press
QNH
hPa
Press
MSL
hPa
Rain since
9am
mm
Dir  Spd
km/h
Gust
km/h
Spd
kts
Gust
kts
24/06:30pm 23.2 23.4 14.2 57 5.3 W 6 7 3 4 1015.0 1014.6 0.0
24/06:00pm 24.7 24.6 13.9 51 6.4 W 7 9 4 5 1014.5 1014.1 0.0
24/05:30pm 27.1 26.8 14.5 46 7.6 W 9 11 5 6 1014.3 1013.9 0.0
24/05:00pm 28.0 27.0 13.5 41 8.7 W 11 15 6 8 1014.1 1013.7 0.0
24/04:30pm 28.9 28.0 13.6 39 9.2 W 11 19 6 10 1013.9 1013.5 0.0
24/04:00pm 29.2 28.6 13.4 38 9.5 W 9 13 5 7 1013.7 1013.3 0.0
24/03:30pm 29.1 28.3 14.1 40 9.1 WSW 11 17 6 9 1013.6 1013.2 0.0
24/03:00pm 28.9 28.5 15.1 43 8.5 NNW 11 19 6 10 1013.7 1013.3 0.0
24/02:30pm 28.6 28.1 13.7 40 9.0 WNW 9 15 5 8 1014.0 1013.6 0.0
24/02:00pm 28.0 27.4 13.5 41 8.7 NNW 9 17 5 9 1014.4 1014.0 0.0
24/01:30pm 28.2 28.0 14.8 44 8.2 WNW 9 24 5 13 1014.8 1014.4 0.0
24/01:00pm 27.6 28.3 15.6 48 7.4 SE 6 13 3 7 1015.4 1015.0 0.0
24/12:30pm 27.8 28.7 16.1 49 7.3 N 6 11 3 6 1015.8 1015.5 0.0
24/12:00pm 26.5 27.2 15.5 50 6.7 N 6 9 3 5 1016.3 1016.0 0.0
24/11:30am 26.0 26.0 15.1 51 6.6 ESE 9 13 5 7 1016.8 1016.4 0.0
24/11:00am 25.2 25.7 14.9 52 6.2 E 6 11 3 6 1017.2 1016.8 0.0
24/10:30am 24.8 24.6 14.6 53 6.1 E 9 15 5 8 1017.5 1017.1 0.0
24/10:00am 23.9 22.9 14.6 56 5.6 SE 13 17 7 9 1017.8 1017.4 0.0
24/09:30am 22.6 24.3 17.1 71 3.4 ENE 4 6 2 3 1017.7 1017.3 0.0
24/09:00am 21.1 22.6 17.7 81 2.1 N 6 7 3 4 1017.6 1017.2 0.0
24/08:30am 19.5 20.6 16.7 84 1.7 NW 6 7 3 4 1017.4 1017.0 0.0
24/08:00am 17.5 19.8 16.7 95 0.5 CALM 0 0 0 0 1017.1 1016.7 0.0
24/07:30am 15.6 17.2 15.0 96 0.3 CALM 0 0 0 0 1016.9 1016.5 0.0
24/07:00am 14.6 14.7 14.0 96 0.3 W 6 7 3 4 1016.4 1016.1 0.0
24/06:30am 14.7 14.7 14.1 96 0.3 WNW 7 7 4 4 1016.1 1015.8 0.0
24/06:00am 14.9 14.6 14.4 97 0.3 SW 9 11 5 6 1015.8 1015.5 0.0
24/05:35am 14.7 15.6 14.1 96 0.3 N 2 6 1 3 1015.4 1015.0 0.0
24/05:30am 14.9 15.1 14.3 96 0.3 N 6 9 3 5 1015.3 1014.9 0.0
24/05:17am 14.6 14.1 13.8 95 0.5 N 9 11 5 6 1015.0 1014.6 0.0
24/05:00am 15.2 16.3 14.6 96 0.3 NNW 2 7 1 4 1014.9 1014.5 0.0
24/04:30am 14.8 16.0 13.7 93 0.6 CALM 0 0 0 0 1014.7 1014.3 0.0
24/04:00am 15.5 15.9 14.7 95 0.5 W 6 6 3 3 1014.5 1014.1 0.0
24/03:30am 15.5 15.9 14.7 95 0.5 W 6 7 3 4 1014.4 1014.0 0.0
24/03:00am 15.4 15.6 14.6 95 0.5 WNW 7 7 4 4 1014.4 1014.0 0.0
24/02:30am 15.7 17.2 14.7 94 0.6 CALM 0 0 0 0 1014.3 1013.9 0.0
24/02:00am 15.8 17.3 14.7 93 0.6 CALM 0 0 0 0 1014.4 1014.0 0.0
24/01:30am 16.1 17.6 14.6 91 0.9 CALM 0 0 0 0 1014.3 1013.9 0.0
24/01:00am 16.7 17.7 15.4 92 0.8 SW 4 7 2 4 1014.7 1014.3 0.0
24/12:30am 17.3 18.2 16.0 92 0.8 N 6 6 3 3 1014.6 1014.2 0.0
24/12:00am 17.7 18.6 16.0 90 1.0 N 6 7 3 4 1014.6 1014.2 0.0
 
Date/Time
EST
Temp
°C
App
Temp
°C
Dew
Point
°C
Rel
Hum
%
Delta-T
°C
Wind Press
QNH
hPa
Press
MSL
hPa
Rain since
9am
mm
Dir  Spd
km/h
Gust
km/h
Spd
kts
Gust
kts
23/11:30pm 18.0 20.1 16.3 90 1.0 CALM 0 0 0 0 1014.7 1014.3 0.0
23/11:00pm 18.1 20.1 16.1 88 1.2 CALM 0 0 0 0 1014.8 1014.4 0.0
23/10:30pm 18.6 20.5 15.8 84 1.7 CALM 0 0 0 0 1014.9 1014.5 0.0
23/10:00pm 19.0 21.0 15.9 82 1.9 CALM 0 0 0 0 1015.0 1014.6 0.0
23/09:30pm 19.8 20.5 15.7 77 2.5 WNW 6 6 3 3 1015.0 1014.6 0.0
23/09:00pm 20.0 20.2 15.8 77 2.5 WNW 9 11 5 6 1014.7 1014.3 0.0
23/08:30pm 20.3 21.1 15.9 76 2.7 WSW 6 9 3 5 1014.5 1014.1 0.0
23/08:00pm 21.0 21.8 16.4 75 2.8 W 7 9 4 5 1014.3 1013.9 0.0
23/07:30pm 21.3 22.2 16.0 72 3.2 WNW 6 7 3 4 1013.9 1013.5 0.0
23/07:00pm 22.0 22.9 16.1 69 3.6 NW 6 7 3 4 1013.6 1013.2 0.0
23/06:30pm 23.3 24.2 16.6 66 4.1 NW 7 9 4 5 1013.3 1012.9 0.0
23/06:00pm 24.7 25.6 16.7 61 5.0 WNW 7 9 4 5 1013.2 1012.8 0.0
23/05:30pm 26.7 27.8 17.2 56 6.0 W 7 9 4 5 1013.1 1012.7 0.0
23/05:00pm 27.1 27.3 16.7 53 6.5 W 11 15 6 8 1013.0 1012.6 0.0
23/04:30pm 27.9 27.5 16.2 49 7.3 W 13 17 7 9 1012.8 1012.4 0.0
23/04:00pm 28.2 27.9 16.5 49 7.3 WNW 13 15 7 8 1012.8 1012.4 0.0
23/03:30pm 28.7 28.5 16.6 48 7.6 W 13 19 7 10 1013.0 1012.6 0.0
23/03:00pm 28.1 28.3 15.7 46 7.7 SW 9 17 5 9 1013.1 1012.7 0.0
23/02:30pm 28.4 28.3 17.0 50 7.2 W 13 19 7 10 1013.3 1012.9 0.0
23/02:00pm 27.6 28.2 16.9 52 6.7 NW 9 17 5 9 1013.7 1013.3 0.0
23/01:30pm 27.4 28.7 17.6 55 6.2 WSW 7 17 4 9 1014.0 1013.6 0.0
23/01:00pm 26.2 26.1 17.0 57 5.8 SW 13 19 7 10 1014.3 1013.9 0.0
23/12:30pm 27.3 27.6 18.0 56 5.9 WNW 13 24 7 13 1014.8 1014.4 0.0
23/12:00pm 26.0 26.3 17.9 61 5.1 NW 13 19 7 10 1015.0 1014.6 0.0
23/11:30am 24.9 25.0 17.4 63 4.7 WNW 13 20 7 11 1015.5 1015.2 0.0
23/11:00am 25.0 25.2 17.7 64 4.6 NW 13 20 7 11 1016.0 1015.7 0.0
23/10:30am 23.5 23.5 17.3 68 3.9 NW 13 19 7 10 1016.2 1015.9 0.0
23/10:00am 22.9 22.9 17.1 70 3.6 NW 13 17 7 9 1016.5 1016.2 0.0
23/09:30am 21.7 21.7 17.1 75 2.8 NNW 13 19 7 10 1016.4 1016.1 0.0
23/09:00am 20.2 20.6 17.2 83 1.8 NNW 11 13 6 7 1016.5 1016.2 0.0
23/08:30am 18.8 19.4 16.9 89 1.2 NNW 9 11 5 6 1016.3 1016.0 0.0
23/08:00am 17.2 18.3 16.7 97 0.3 WNW 6 7 3 4 1016.2 1015.9 0.0
23/07:30am 15.3 15.2 15.0 98 0.2 SW 9 11 5 6 1016.1 1015.8 0.0
23/07:24am 14.9 15.6 14.6 98 0.2 SW 4 11 2 6 1016.1 1015.8 0.0
23/07:00am 14.1 15.2 13.6 97 0.3 CALM 0 0 0 0 1015.7 1015.4 0.0
23/06:35am 13.6 14.5 13.0 96 0.3 CALM 0 0 0 0 1015.5 1015.2 0.0
23/06:30am 13.6 14.5 12.8 95 0.4 CALM 0 0 0 0 1015.5 1015.2 0.0
23/06:00am 14.0 13.9 13.4 96 0.3 WNW 6 6 3 3 1015.1 1014.7 0.0
23/05:30am 13.9 14.1 13.1 95 0.4 WNW 4 6 2 3 1014.9 1014.5 0.0
23/05:00am 14.0 15.0 13.2 95 0.4 CALM 0 0 0 0 1014.7 1014.3 0.0
23/04:30am 14.3 14.3 13.7 96 0.3 WNW 6 7 3 4 1014.5 1014.1 0.0
23/04:00am 14.3 14.1 13.7 96 0.3 WNW 7 7 4 4 1014.6 1014.2 0.0
23/03:30am 13.9 13.5 13.0 94 0.5 W 7 7 4 4 1014.5 1014.1 0.0
23/03:00am 14.5 14.5 13.7 95 0.5 W 6 7 3 4 1014.5 1014.1 0.0
23/02:30am 14.7 14.6 13.9 95 0.5 WSW 7 9 4 5 1014.7 1014.3 0.0
23/02:00am 14.7 14.6 13.9 95 0.5 WNW 7 7 4 4 1014.7 1014.3 0.0
23/01:30am 14.9 15.1 14.1 95 0.5 WNW 6 6 3 3 1014.9 1014.5 0.0
23/01:00am 15.3 15.6 14.5 95 0.5 NW 6 7 3 4 1015.0 1014.6 0.0
23/12:30am 15.3 15.5 14.2 93 0.6 NW 6 6 3 3 1015.0 1014.6 0.0
23/12:00am 15.4 15.6 14.3 93 0.6 NW 6 7 3 4 1015.1 1014.7 0.0
 
Date/Time
EST
Temp
°C
App
Temp
°C
Dew
Point
°C
Rel
Hum
%
Delta-T
°C
Wind Press
QNH
hPa
Press
MSL
hPa
Rain since
9am
mm
Dir  Spd
km/h
Gust
km/h
Spd
kts
Gust
kts
22/11:30pm 15.6 16.9 14.0 90 0.9 CALM 0 0 0 0 1015.2 1014.8 0.0
22/11:00pm 15.8 16.3 14.0 89 1.0 WSW 4 6 2 3 1015.3 1014.9 0.0
22/10:30pm 16.7 16.8 14.5 87 1.3 W 7 9 4 5 1015.4 1015.0 0.0
22/10:00pm 17.2 16.9 14.5 84 1.6 NW 9 13 5 7 1015.5 1015.2 0.0
22/09:30pm 17.9 16.9 14.6 81 1.9 SSE 13 13 7 7 1015.2 1014.8 0.0
22/09:00pm 18.9 18.7 14.6 76 2.5 SSE 9 11 5 6 1015.4 1015.0 0.0
22/08:30pm 19.0 19.5 15.5 80 2.1 SSE 7 9 4 5 1015.4 1015.0 0.0
22/08:00pm 18.2 19.5 15.1 82 1.8 W 2 6 1 3 1015.4 1015.0 0.0
22/07:30pm 18.5 18.8 14.6 78 2.3 WSW 6 13 3 7 1015.2 1014.8 0.0
22/07:00pm 21.2 21.0 14.8 67 3.8 SE 9 11 5 6 1014.9 1014.5 0.0
22/06:30pm 21.5 21.1 14.2 63 4.3 SE 9 11 5 6 1014.6 1014.2 0.0
22/06:00pm 22.2 23.0 14.8 63 4.4 ENE 4 7 2 4 1014.4 1014.0 0.0
22/05:30pm 25.5 26.9 14.3 50 6.7 CALM 0 0 0 0 1014.3 1013.9 0.0
22/05:00pm 26.6 26.7 14.0 46 7.6 NE 6 11 3 6 1014.1 1013.7 0.0
22/04:30pm 27.1 26.4 13.1 42 8.3 NNE 9 13 5 7 1014.0 1013.6 0.0
22/04:00pm 27.1 26.4 13.1 42 8.3 ENE 9 13 5 7 1014.0 1013.6 0.0
22/03:30pm 27.5 26.8 13.1 41 8.5 N 9 11 5 6 1014.1 1013.7 0.0
22/03:00pm 26.7 26.3 13.1 43 8.0 NNE 7 13 4 7 1014.3 1013.9 0.0
22/02:30pm 27.1 26.1 14.5 46 7.6 N 13 17 7 9 1014.4 1014.0 0.0
22/02:00pm 27.0 26.7 14.4 46 7.6 N 9 19 5 10 1014.8 1014.4 0.0
22/01:30pm 26.6 27.2 15.3 50 6.9 W 6 11 3 6 1015.3 1014.9 0.0
22/01:00pm 26.1 26.3 15.8 53 6.3 NE 9 17 5 9 1015.7 1015.4 0.0
22/12:30pm 25.2 25.3 15.5 55 5.9 E 9 15 5 8 1016.2 1015.9 0.0
22/12:00pm 24.9 25.0 15.5 56 5.7 ESE 9 17 5 9 1016.8 1016.4 0.0
22/11:30am 24.0 24.2 15.8 60 5.0 NNW 9 17 5 9 1017.3 1016.9 0.0
22/11:00am 23.6 23.3 15.4 60 5.0 NNE 11 17 6 9 1017.7 1017.3 0.0
22/10:30am 23.2 23.1 16.0 64 4.4 NE 11 17 6 9 1018.0 1017.6 0.0
22/10:00am 21.9 22.4 15.5 67 3.9 NNE 7 13 4 7 1018.3 1017.9 0.0
22/09:30am 20.8 21.8 16.8 78 2.5 NE 7 11 4 6 1018.3 1017.9 0.0
22/09:00am 19.4 20.0 16.8 85 1.6 ESE 9 11 5 6 1018.3 1017.9 0.0
22/08:30am 18.0 18.8 17.2 95 0.5 SE 9 11 5 6 1018.2 1017.8 0.0
22/08:23am 17.8 18.6 17.3 97 0.3 SE 9 13 5 7 1018.1 1017.7 0.0
22/08:04am 17.5 18.9 17.3 99 0.1 SSE 6 13 3 7 1018.0 1017.6 0.0
22/08:00am 17.2 18.5 17.0 99 0.1 SSE 6 9 3 5 1017.9 1017.5 0.0
22/07:30am 15.3 16.9 15.0 98 0.2 CALM 0 0 0 0 1017.9 1017.5 0.0
22/07:00am 14.4 15.6 13.9 97 0.3 CALM 0 6 0 3 1017.7 1017.3 0.0
22/06:35am 14.9 15.0 14.4 97 0.3 SE 7 9 4 5 1017.5 1017.1 0.0
22/06:30am 15.0 15.1 14.5 97 0.3 SSE 7 9 4 5 1017.5 1017.1 0.0
22/06:00am 15.1 15.3 14.6 97 0.3 SSE 7 9 4 5 1017.4 1017.0 0.0
22/05:44am 15.0 15.1 14.5 97 0.3 SE 7 9 4 5 1017.3 1016.9 0.0
22/05:30am 14.9 15.0 14.4 97 0.3 SE 7 9 4 5 1017.1 1016.7 0.0
22/05:11am 14.6 14.2 14.0 96 0.3 SE 9 9 5 5 1017.1 1016.7 0.0
22/05:00am 14.8 14.4 14.2 96 0.3 SSE 9 11 5 6 1017.1 1016.7 0.0
22/04:50am 15.2 15.0 14.6 96 0.3 SSE 9 9 5 5 1017.1 1016.7 0.0
22/04:30am 15.1 16.4 14.1 94 0.6 CALM 0 0 0 0 1017.1 1016.7 0.0
22/04:25am 14.8 16.0 13.8 94 0.6 CALM 0 0 0 0 1017.1 1016.7 0.0
22/04:00am 15.5 15.9 14.7 95 0.5 SSE 6 6 3 3 1017.0 1016.6 0.0
22/03:53am 15.8 16.3 15.0 95 0.5 SSE 6 7 3 4 1017.0 1016.6 0.0
22/03:30am 16.4 16.6 15.8 96 0.4 SSE 9 11 5 6 1017.1 1016.7 0.0
22/03:00am 16.6 16.5 16.0 96 0.4 SSE 11 11 6 6 1017.3 1016.9 0.0
22/02:30am 16.5 16.4 15.9 96 0.4 SSE 11 13 6 7 1017.5 1017.1 0.0
22/02:00am 16.7 16.3 16.1 96 0.4 S 13 13 7 7 1017.6 1017.2 0.0
22/01:30am 16.8 16.8 16.2 96 0.4 S 11 13 6 7 1017.8 1017.4 0.0
22/01:00am 16.8 16.7 16.0 95 0.5 SSE 11 11 6 6 1018.0 1017.6 0.0
22/12:30am 16.8 16.7 16.0 95 0.5 S 11 13 6 7 1018.0 1017.6 0.0
22/12:00am 17.0 16.9 16.0 94 0.6 SSE 11 13 6 7 1018.0 1017.6 0.0
 
Date/Time
EST
Temp
°C
App
Temp
°C
Dew
Point
°C
Rel
Hum
%
Delta-T
°C
Wind Press
QNH
hPa
Press
MSL
hPa
Rain since
9am
mm
Dir  Spd
km/h
Gust
km/h
Spd
kts
Gust
kts
21/11:30pm 17.0 17.3 15.9 93 0.7 SSE 9 11 5 6 1018.2 1017.8 0.0
21/11:00pm 17.2 17.5 15.9 92 0.8 SE 9 11 5 6 1018.3 1017.9 0.0
21/10:30pm 17.6 17.4 15.8 89 1.1 SE 11 13 6 7 1018.3 1017.9 0.0
21/10:00pm 18.3 17.6 16.3 88 1.2 SE 15 17 8 9 1018.3 1017.9 0.0
21/09:30pm 19.2 18.3 16.8 86 1.5 SE 17 19 9 10 1018.3 1017.9 0.0
21/09:00pm 19.3 18.9 17.1 87 1.3 SE 15 19 8 10 1018.2 1017.8 0.0
21/08:30pm 19.1 19.5 17.2 89 1.2 SE 11 13 6 7 1017.9 1017.5 0.0
21/08:00pm 18.8 18.9 16.6 87 1.3 ESE 11 13 6 7 1017.6 1017.2 0.0
21/07:30pm 19.2 19.3 16.6 85 1.6 ESE 11 11 6 6 1017.4 1017.0 0.0
21/07:00pm 19.8 19.9 16.6 82 1.9 ESE 11 13 6 7 1017.2 1016.8 0.0

Other Formats:

Comma delimited format used in spreadsheet applications
http://www.bom.gov.au/fwo/IDQ60801/IDQ60801.94397.axf

JavaScript Object Notation format (JSON) in row-major order
http://www.bom.gov.au/fwo/IDQ60801/IDQ60801.94397.json